Location: Home
(42.5358°N, 72.7383°W)
Time: 11:59:12
(UTC-05:00)

Transit 4A - Pass Details

Date: 02 December 2021
Orbit: 864 x 981 km, 66.8° (Epoch: 19 January)

Event Time Altitude Azimuth Distance (km) Brightness Sun altitude
Rises 19:56:37 0° 225° (SW) 3,448 11.3 -39.5°
Reaches altitude 10° 19:59:08 10° 230° (SW) 2,524 10.6 -40.0°
Enters shadow 20:00:46 19° 236° (SW) 1,955 9.9 -40.3°
Maximum altitude 20:04:49 52° 306° (NW) 1,098 - -41.0°
Drops below altitude 10° 20:10:42 10° 23° (NNE) 2,606 - -42.1°
Sets 20:13:21 0° 28° (NNE) 3,571 - -42.6°
